NORTHERN NASSAU  -  Areal Flood Advisory Areal Flood Advisory     Flash Flood Watch Flash Flood Watch     Rip Current Statement Rip Current Statement        NORTHERN QUEENS  -  Areal Flood Advisory Areal Flood Advisory     Flash Flood Watch Flash Flood Watch     Rip Current Statement Rip Current Statement        SOUTHERN NASSAU  -  Areal Flood Advisory Areal Flood Advisory     Flash Flood Watch Flash Flood Watch     Rip Current Statement Rip Current Statement        SOUTHERN QUEENS  -  Areal Flood Advisory Areal Flood Advisory     Flash Flood Watch Flash Flood Watch     Rip Current Statement Rip Current Statement        NORTHEAST SUFFOLK  -  Rip Current Statement Rip Current Statement        NORTHWEST SUFFOLK  -  Rip Current Statement Rip Current Statement        SOUTHEAST SUFFOLK  -  Rip Current Statement Rip Current Statement        SOUTHWEST SUFFOLK  -  Rip Current Statement Rip Current Statement      

Active alerts

Northern Queens
  Details for Northern Queens Areal Flood Advisory  +2 additional alerts
Southern Queens
  Details for Southern Queens Areal Flood Advisory  +2 additional alerts
Northern Nassau
  Details for Northern Nassau Areal Flood Advisory  +2 additional alerts
Southern Nassau
  Details for Southern Nassau Areal Flood Advisory  +2 additional alerts
Northwest Suffolk
  Details for Northwest Suffolk Rip Current Statement
Southwest Suffolk
  Details for Southwest Suffolk Rip Current Statement
Northeast Suffolk
  Details for Northeast Suffolk Rip Current Statement
Southeast Suffolk
  Details for Southeast Suffolk Rip Current Statement


WXM80 ListenWXM80 Stop

You find our weather info also at:

UK Metoffice

WeatherCloud

Weather Underground

Northeastern Weather Network

AWEKAS

Citizen Weather Observer Program (CWOP)

HAMweather, WeatherForYou, PWS Weather


Weather Underground History page Text

Daily Summary for March 7, 2018 Units:  Metric    English   Both
« Previous Day
Next Day »
Daily Weekly Monthly Yearly Custom
  High: Low: Average:
Temperature: 2.8 °C 0.5 °C 1.6 °C
Dew Point: 2.1 °C -0.7 °C 0.8 °C
Humidity: 98 % 78 % 95 %
Wind Speed: 33.8 km/h 2.1 km/h 14.6 km/h
Wind Gust: 49.9 km/h - -
Wind:- - ESE
Pressure: 1007 hPa 990.1 hPa -
Precipitation: 20.32 mm    
Historical Graphs
 
 
Tabular Data for March 7, 2018
Time Temperature Dew Point Pressure Wind Wind Speed Wind Gust Humidity Rainfall Rate (Hourly)
00:00 2.7 °C -0.7 °C 1005.6 hPa ENE 3.5 km/h 9.3 km/h 78 % 0 mm
00:05 2.7 °C -0.7 °C 1006 hPa East 3.5 km/h 7.4 km/h 78 % 0 mm
00:10 2.7 °C -0.7 °C 1006 hPa East 2.1 km/h 7.4 km/h 78 % 0 mm
00:15 2.8 °C -0.5 °C 1005.6 hPa ENE 8.7 km/h 14.8 km/h 79 % 0 mm
00:20 2.7 °C -0.4 °C 1005.6 hPa ENE 6.9 km/h 11.3 km/h 80 % 0 mm
00:25 2.7 °C -0.2 °C 1006.3 hPa ENE 8 km/h 14.8 km/h 81 % 0 mm
00:30 2.7 °C -0.3 °C 1006.3 hPa ENE 8.4 km/h 11.1 km/h 81 % 0 mm
00:35 2.7 °C -0.1 °C 1007 hPa East 7.6 km/h 9.7 km/h 82 % 0 mm
00:40 2.6 °C -0.2 °C 1007 hPa East 6.1 km/h 9.7 km/h 82 % 0 mm
00:45 2.6 °C -0.2 °C 1007 hPa East 5.3 km/h 7.4 km/h 82 % 0 mm
00:50 2.6 °C -0.2 °C 1007 hPa East 6 km/h 9.3 km/h 82 % 0 mm
00:55 2.4 °C -0.2 °C 1006.3 hPa East 5.8 km/h 7.4 km/h 83 % 0 mm
01:00 2.4 °C -0.1 °C 1006.3 hPa East 7.9 km/h 9.7 km/h 84 % 0 mm
01:05 2.3 °C 0.1 °C 1006 hPa East 8.2 km/h 13 km/h 85 % 0 mm
01:10 2.2 °C 0.1 °C 1006 hPa East 9.2 km/h 16.1 km/h 86 % 0 mm
01:15 2.1 °C 0.2 °C 1005.6 hPa East 11.4 km/h 13 km/h 87 % 0 mm
01:20 2 °C 0.1 °C 1005.3 hPa East 12.2 km/h 14.8 km/h 87 % 0 mm
01:25 1.9 °C 0.2 °C 1005.3 hPa East 10.8 km/h 14.8 km/h 88 % 0 mm
01:30 1.8 °C 0.2 °C 1005.6 hPa East 9.7 km/h 14.8 km/h 89 % 0 mm
01:36 1.8 °C 0.2 °C 1005.6 hPa East 5 km/h 9.7 km/h 89 % 0 mm
01:41 1.8 °C 0.3 °C 1005.6 hPa East 9.7 km/h 12.9 km/h 90 % 0 mm
01:46 1.8 °C 0.3 °C 1006 hPa East 4.8 km/h 14.5 km/h 90 % 0 mm
01:51 1.7 °C 0.3 °C 1006 hPa East 3.2 km/h 9.7 km/h 90 % 0 mm
01:56 1.7 °C 0.3 °C 1006 hPa East 4.8 km/h 12.9 km/h 91 % 0 mm
02:01 1.7 °C 0.3 °C 1005.6 hPa East 7.1 km/h 11.1 km/h 91 % 0 mm
02:06 1.7 °C 0.3 °C 1005.3 hPa East 7.9 km/h 11.1 km/h 91 % 0 mm
02:11 1.6 °C 0.4 °C 1005.3 hPa East 8.2 km/h 11.3 km/h 92 % 0 mm
02:16 1.6 °C 0.4 °C 1005.3 hPa East 11.4 km/h 13 km/h 92 % 0 mm
02:21 1.5 °C 0.3 °C 1005.3 hPa East 11.6 km/h 16.7 km/h 92 % 0 mm
02:26 1.4 °C 0.3 °C 1005.3 hPa East 9.7 km/h 12.9 km/h 92 % 0 mm
02:31 1.4 °C 0.2 °C 1005.6 hPa East 8 km/h 9.3 km/h 92 % 0 mm
02:36 1.3 °C 0.2 °C 1005.6 hPa ENE 4.3 km/h 5.6 km/h 92 % 0 mm
02:41 1.3 °C 0.3 °C 1005.6 hPa East 9.5 km/h 11.3 km/h 93 % 0 mm
02:46 1.3 °C 0.3 °C 1005.6 hPa East 4.7 km/h 9.3 km/h 93 % 0 mm
02:51 1.2 °C 0.2 °C 1005.3 hPa ENE 5.1 km/h 7.4 km/h 93 % 0 mm
02:56 1.2 °C 0.2 °C 1005.3 hPa ENE 5.6 km/h 7.4 km/h 93 % 0 mm
03:01 1.2 °C 0.2 °C 1005.3 hPa ENE 6.1 km/h 9.3 km/h 93 % 0 mm
03:07 1.2 °C 0.2 °C 1005 hPa East 9 km/h 13 km/h 93 % 0 mm
03:12 1.1 °C 0.1 °C 1004.6 hPa East 10.6 km/h 13 km/h 93 % 0 mm
03:17 1.1 °C 0.2 °C 1004.6 hPa East 11.3 km/h 14.8 km/h 94 % 0 mm
03:22 1.1 °C 0.2 °C 1004.3 hPa East 12.1 km/h 13 km/h 94 % 0 mm
03:27 1 °C 0.2 °C 1004.6 hPa East 11.4 km/h 14.8 km/h 94 % 0 mm
03:32 1 °C 0.2 °C 1004.6 hPa East 11.4 km/h 14.8 km/h 94 % 0 mm
03:37 1 °C 0.2 °C 1005 hPa East 9.7 km/h 14.5 km/h 94 % 0 mm
03:42 1 °C 0.3 °C 1005 hPa East 8.2 km/h 13 km/h 95 % 0 mm
03:47 0.9 °C 0.2 °C 1004.6 hPa ENE 10.1 km/h 13 km/h 95 % 0 mm
03:52 0.9 °C 0.2 °C 1003.9 hPa East 9.2 km/h 13 km/h 95 % 0 mm
03:57 1 °C 0.3 °C 1004.6 hPa East 9.5 km/h 14.8 km/h 95 % 0 mm
04:02 1 °C 0.3 °C 1005.3 hPa ESE 6.9 km/h 13 km/h 95 % 0 mm
04:07 1 °C 0.3 °C 1005 hPa East 8.5 km/h 11.1 km/h 95 % 0 mm
04:12 1.1 °C 0.3 °C 1004.6 hPa East 8.5 km/h 13 km/h 95 % 0 mm
04:17 1.1 °C 0.3 °C 1004.6 hPa East 9.2 km/h 12.9 km/h 95 % 0 mm
04:22 1.1 °C 0.3 °C 1004.6 hPa East 10.8 km/h 14.8 km/h 95 % 0 mm
04:28 1.1 °C 0.3 °C 1004.3 hPa East 12.4 km/h 13 km/h 95 % 0 mm
04:33 1.1 °C 0.4 °C 1003.9 hPa East 12.7 km/h 16.7 km/h 95 % 0 mm
04:38 1.2 °C 0.4 °C 1003.9 hPa East 12.4 km/h 16.7 km/h 95 % 0 mm
04:43 1.2 °C 0.4 °C 1003.6 hPa East 13.2 km/h 16.7 km/h 95 % 0 mm
04:48 1.2 °C 0.5 °C 1003.3 hPa ENE 13.4 km/h 14.8 km/h 95 % 0 mm
04:53 1.2 °C 0.7 °C 1002.9 hPa ENE 11.1 km/h 14.8 km/h 96 % 0 mm
04:58 1.3 °C 0.7 °C 1003.3 hPa East 13.4 km/h 14.8 km/h 96 % 0 mm
05:03 1.3 °C 0.7 °C 1003.3 hPa ENE 10.6 km/h 16.7 km/h 96 % 0 mm
05:08 1.3 °C 0.7 °C 1003.3 hPa East 12.6 km/h 14.8 km/h 96 % 0 mm
05:13 1.3 °C 0.7 °C 1003.3 hPa East 12.4 km/h 14.8 km/h 96 % 0 mm
05:18 1.3 °C 0.7 °C 1003.6 hPa East 9.8 km/h 13 km/h 96 % 0 mm
05:24 1.3 °C 0.7 °C 1003.9 hPa East 10.6 km/h 14.8 km/h 96 % 0 mm
05:27 1.3 °C 0.7 °C 1003.6 hPa East 12.1 km/h 14.8 km/h 96 % 0 mm
05:32 1.3 °C 0.7 °C 1003.3 hPa ENE 11.3 km/h 13 km/h 96 % 0 mm
05:37 1.3 °C 0.7 °C 1003.3 hPa East 12.9 km/h 16.7 km/h 96 % 0 mm
05:42 1.3 °C 0.8 °C 1002.9 hPa East 10.3 km/h 17.7 km/h 96 % 0 mm
05:47 1.3 °C 0.8 °C 1002.9 hPa East 12.2 km/h 18.5 km/h 96 % 0 mm
05:52 1.4 °C 0.8 °C 1003.3 hPa East 10.9 km/h 14.8 km/h 96 % 0 mm
05:57 1.4 °C 0.8 °C 1003.3 hPa East 15.1 km/h 18.5 km/h 96 % 0 mm
06:02 1.4 °C 0.8 °C 1003.6 hPa East 13.7 km/h 16.7 km/h 96 % 0 mm
06:07 1.4 °C 0.8 °C 1003.3 hPa East 14.5 km/h 14.8 km/h 96 % 0 mm
06:12 1.4 °C 0.9 °C 1003.3 hPa East 11.7 km/h 16.7 km/h 96 % 0 mm
06:17 1.4 °C 0.9 °C 1003.3 hPa East 12.7 km/h 18.5 km/h 96 % 0 mm
06:22 1.4 °C 0.9 °C 1003.3 hPa East 12.9 km/h 18.5 km/h 96 % 0 mm
06:27 1.4 °C 0.9 °C 1003.3 hPa East 13 km/h 16.1 km/h 96 % 0 mm
06:32 1.5 °C 0.9 °C 1003.3 hPa East 9.7 km/h 14.8 km/h 96 % 0 mm
06:37 1.5 °C 0.9 °C 1003.3 hPa East 12.1 km/h 16.7 km/h 96 % 0 mm
06:42 1.6 °C 1 °C 1002.6 hPa East 13.8 km/h 14.8 km/h 96 % 0 mm
06:47 1.6 °C 1 °C 1002.6 hPa East 11.1 km/h 12.9 km/h 96 % 0 mm
06:52 1.6 °C 1 °C 1002.6 hPa East 11.6 km/h 16.7 km/h 96 % 0 mm
06:57 1.6 °C 1.1 °C 1002.6 hPa East 13.4 km/h 18.5 km/h 96 % 0 mm
07:02 1.7 °C 1.1 °C 1002.6 hPa East 16.4 km/h 17.7 km/h 96 % 0 mm
07:08 1.7 °C 1.1 °C 1002.6 hPa East 15 km/h 16.1 km/h 96 % 0 mm
07:13 1.7 °C 1.2 °C 1002.6 hPa East 16.7 km/h 22.5 km/h 96 % 0 mm
07:18 1.8 °C 1.2 °C 1002.3 hPa East 14.2 km/h 22.5 km/h 96 % 0 mm
07:23 1.8 °C 1.3 °C 1002.3 hPa East 14.8 km/h 25.9 km/h 96 % 0 mm
07:28 1.8 °C 1.3 °C 1002.3 hPa East 15.8 km/h 20.9 km/h 96 % 0 mm
07:33 1.9 °C 1.3 °C 1002.3 hPa East 15 km/h 20.9 km/h 96 % 0 mm
07:38 1.9 °C 1.4 °C 1001.9 hPa East 18 km/h 24.1 km/h 96 % 0 mm
07:43 2 °C 1.4 °C 1001.9 hPa East 14.6 km/h 22.2 km/h 96 % 0 mm
07:48 2.1 °C 1.5 °C 1001.6 hPa ENE 15.6 km/h 18.5 km/h 96 % 0 mm
07:53 2.1 °C 1.6 °C 1001.6 hPa East 17.1 km/h 22.5 km/h 96 % 0 mm
07:58 2.2 °C 1.6 °C 1001.2 hPa East 15.1 km/h 18.5 km/h 96 % 0 mm
08:03 2.2 °C 1.7 °C 1001.2 hPa East 19.8 km/h 24.1 km/h 96 % 0 mm
08:08 2.2 °C 1.7 °C 1001.2 hPa East 17.9 km/h 20.9 km/h 96 % 0 mm
08:13 2.3 °C 1.7 °C 1000.9 hPa ENE 15.3 km/h 20.9 km/h 96 % 0 mm
08:18 2.3 °C 1.8 °C 1000.9 hPa ENE 20.4 km/h 24.1 km/h 96 % 0 mm
08:23 2.4 °C 1.8 °C 1000.9 hPa East 17.1 km/h 24.1 km/h 96 % 0 mm
08:28 2.4 °C 1.9 °C 1000.9 hPa ENE 17.7 km/h 27.8 km/h 96 % 0 mm
08:33 2.4 °C 1.7 °C 1000.9 hPa East 20.8 km/h 25.9 km/h 95 % 0 mm
08:38 2.4 °C 1.9 °C 1000.6 hPa East 20 km/h 25.9 km/h 96 % 0 mm
08:43 2.5 °C 1.9 °C 1000.6 hPa East 17.4 km/h 24.1 km/h 96 % 0 mm
08:49 2.6 °C 1.8 °C 1000.6 hPa East 18.2 km/h 24.1 km/h 95 % 0 mm
08:54 2.6 °C 1.8 °C 1000.6 hPa East 19.8 km/h 27.8 km/h 95 % 0 mm
08:59 2.6 °C 1.9 °C 1000.6 hPa ENE 17.2 km/h 24.1 km/h 95 % 0 mm
09:04 2.7 °C 1.9 °C 1000.6 hPa East 18.5 km/h 24.1 km/h 95 % 0 mm
09:09 2.7 °C 1.9 °C 1000.6 hPa East 18.5 km/h 25.9 km/h 95 % 0 mm
09:14 2.7 °C 2 °C 1000.6 hPa East 17.5 km/h 24.1 km/h 95 % 0 mm
09:19 2.8 °C 2.1 °C 1000.2 hPa ENE 18.3 km/h 22.5 km/h 95 % 0 mm
09:24 2.7 °C 1.8 °C 1000.2 hPa East 19.3 km/h 27.8 km/h 94 % 0 mm
09:29 2.7 °C 1.8 °C 1000.2 hPa ENE 21.2 km/h 27.8 km/h 94 % 0 mm
09:34 2.6 °C 1.7 °C 1000.2 hPa East 20.6 km/h 25.9 km/h 94 % 0 mm
09:39 2.6 °C 1.7 °C 1000.2 hPa ENE 20.8 km/h 25.9 km/h 94 % 0 mm
09:44 2.6 °C 1.9 °C 999.9 hPa ENE 19.8 km/h 25.9 km/h 95 % 0 mm
09:49 2.6 °C 1.9 °C 999.9 hPa ENE 20.8 km/h 33.3 km/h 95 % 0 mm
09:54 2.6 °C 1.9 °C 999.5 hPa East 23.2 km/h 29.6 km/h 95 % 0 mm
09:59 2.6 °C 1.9 °C 999.2 hPa ENE 21.1 km/h 27.4 km/h 95 % 0 mm
10:04 2.6 °C 1.9 °C 999.2 hPa East 22 km/h 35.2 km/h 95 % 0 mm
10:09 2.6 °C 1.8 °C 999.2 hPa ENE 18.7 km/h 31.5 km/h 95 % 0 mm
10:14 2.5 °C 1.8 °C 998.9 hPa East 23.3 km/h 29.6 km/h 95 % 0 mm
10:19 2.4 °C 1.7 °C 998.5 hPa ENE 26.9 km/h 33.3 km/h 95 % 0 mm
10:24 2.4 °C 1.7 °C 998.9 hPa ENE 22.5 km/h 33.3 km/h 95 % 0 mm
10:29 2.3 °C 1.6 °C 998.5 hPa ENE 23 km/h 31.5 km/h 95 % 0 mm
10:35 2.3 °C 1.6 °C 998.2 hPa ENE 23.5 km/h 38.9 km/h 95 % 0 mm
10:40 2.4 °C 1.9 °C 998.2 hPa East 24.5 km/h 31.5 km/h 96 % 0 mm
10:45 2.4 °C 1.8 °C 998.2 hPa ENE 24.6 km/h 30.6 km/h 96 % 0.25 mm
10:50 2.4 °C 1.9 °C 998.2 hPa East 22 km/h 27.8 km/h 96 % 0.25 mm
10:55 2.4 °C 1.9 °C 997.9 hPa East 20.4 km/h 31.5 km/h 96 % 0.25 mm
11:00 2.5 °C 1.9 °C 997.5 hPa ENE 21.4 km/h 29.6 km/h 96 % 0.25 mm
11:05 2.6 °C 2 °C 997.5 hPa ENE 26.1 km/h 35.4 km/h 96 % 0.25 mm
11:10 2.6 °C 2.1 °C 997.2 hPa East 26.9 km/h 33.3 km/h 96 % 0.25 mm
11:15 2.6 °C 2 °C 997.2 hPa NE 29.1 km/h 37 km/h 96 % 0.25 mm
11:20 2.6 °C 2.1 °C 997.2 hPa ENE 22.4 km/h 33.8 km/h 96 % 0.25 mm
11:25 2.6 °C 2 °C 997.2 hPa ENE 23.2 km/h 38.9 km/h 96 % 0.25 mm
11:30 2.6 °C 2 °C 996.8 hPa ENE 28 km/h 40.2 km/h 96 % 0.51 mm
11:35 2.5 °C 1.9 °C 996.5 hPa East 27 km/h 38.9 km/h 96 % 0.51 mm
11:40 2.5 °C 1.9 °C 996.5 hPa East 25.7 km/h 37 km/h 96 % 0.25 mm
11:45 2.4 °C 1.9 °C 996.5 hPa East 26.2 km/h 37 km/h 96 % 0.25 mm
11:50 2.4 °C 1.9 °C 996.5 hPa ENE 30.1 km/h 38.9 km/h 96 % 0.25 mm
11:55 2.4 °C 1.9 °C 996.2 hPa East 25.3 km/h 31.5 km/h 96 % 0.51 mm
12:00 2.4 °C 1.8 °C 996.2 hPa East 25.9 km/h 35.2 km/h 96 % 0.51 mm
12:05 2.3 °C 1.7 °C 996.2 hPa East 21.9 km/h 29.6 km/h 96 % 0.51 mm
12:10 2.1 °C 1.4 °C 995.8 hPa ESE 24.6 km/h 38.9 km/h 95 % 0.76 mm
12:15 1.9 °C 1.2 °C 995.8 hPa East 27.8 km/h 42.6 km/h 95 % 1.02 mm
12:20 1.7 °C 1 °C 995.5 hPa ENE 30.6 km/h 37 km/h 95 % 1.27 mm
12:26 1.6 °C 1.1 °C 995.5 hPa ENE 24.1 km/h 33.8 km/h 96 % 0.25 mm
12:31 1.5 °C 0.9 °C 995.1 hPa ENE 24.1 km/h 40.2 km/h 96 % 0 mm
12:36 1.4 °C 0.9 °C 995.1 hPa ENE 24.1 km/h 38.6 km/h 96 % 0 mm
12:41 1.4 °C 0.9 °C 994.8 hPa ENE 32.2 km/h 41.8 km/h 96 % 0 mm
12:46 1.4 °C 0.8 °C 994.5 hPa ENE 33.8 km/h 49.9 km/h 96 % 0 mm
12:51 1.3 °C 0.8 °C 994.1 hPa ENE 25.7 km/h 38.6 km/h 96 % 0 mm
12:56 1.3 °C 0.7 °C 994.1 hPa ENE 22.5 km/h 35.4 km/h 96 % 0 mm
13:01 1.2 °C 0.6 °C 994.1 hPa ENE 23.5 km/h 29.6 km/h 96 % 1.78 mm
13:06 1.2 °C 0.6 °C 993.8 hPa ENE 24.3 km/h 32.2 km/h 96 % 1.78 mm
13:11 1.1 °C 0.6 °C 993.5 hPa ENE 23.7 km/h 37 km/h 96 % 1.27 mm
13:16 1.1 °C 0.5 °C 993.5 hPa ENE 16.9 km/h 25.9 km/h 96 % 1.52 mm
13:21 1 °C 0.4 °C 993.5 hPa ENE 20.3 km/h 33.3 km/h 96 % 1.27 mm
13:26 0.9 °C 0.4 °C 993.5 hPa ENE 19.3 km/h 27.8 km/h 96 % 1.27 mm
13:31 0.9 °C 0.3 °C 993.1 hPa NE 6.9 km/h 9.3 km/h 96 % 1.27 mm
13:36 0.8 °C 0.3 °C 993.1 hPa ENE 11.4 km/h 19.3 km/h 96 % 1.52 mm
13:41 0.8 °C 0.3 °C 993.1 hPa NNE 12.2 km/h 22.2 km/h 96 % 1.27 mm
13:46 0.8 °C 0.2 °C 992.8 hPa North 11.6 km/h 22.2 km/h 96 % 1.52 mm
13:51 0.8 °C 0.2 °C 992.8 hPa NNE 13.2 km/h 25.9 km/h 96 % 1.27 mm
13:56 0.8 °C 0.2 °C 992.8 hPa NNE 15.4 km/h 25.9 km/h 96 % 1.52 mm
14:01 0.8 °C 0.3 °C 992.8 hPa NNE 15.4 km/h 24.1 km/h 97 % 1.27 mm
14:06 0.8 °C 0.4 °C 992.8 hPa NE 13.7 km/h 25.7 km/h 97 % 1.27 mm
14:11 0.8 °C 0.4 °C 992.8 hPa NE 14.8 km/h 20.4 km/h 97 % 1.52 mm
14:16 0.8 °C 0.3 °C 992.4 hPa NE 17.9 km/h 25.9 km/h 97 % 1.27 mm
14:21 0.8 °C 0.3 °C 992.4 hPa NE 15.3 km/h 19.3 km/h 97 % 1.27 mm
14:26 0.8 °C 0.3 °C 992.1 hPa NE 13.8 km/h 20.4 km/h 97 % 1.27 mm
14:31 0.7 °C 0.3 °C 992.1 hPa North 13.5 km/h 22.2 km/h 97 % 1.27 mm
14:36 0.7 °C 0.3 °C 992.1 hPa NE 12.2 km/h 13 km/h 97 % 1.27 mm
14:42 0.7 °C 0.3 °C 991.8 hPa NNE 12.1 km/h 24.1 km/h 97 % 1.27 mm
14:47 0.8 °C 0.3 °C 991.4 hPa NE 10.6 km/h 18.5 km/h 97 % 1.27 mm
14:52 0.8 °C 0.3 °C 991.1 hPa NNE 15 km/h 31.5 km/h 97 % 1.27 mm
14:57 0.8 °C 0.3 °C 991.1 hPa NNE 12.4 km/h 18.5 km/h 97 % 1.27 mm
15:01 0.8 °C 0.4 °C 991.1 hPa NNE 12.7 km/h 19.3 km/h 97 % 1.27 mm
15:06 0.8 °C 0.4 °C 990.7 hPa NE 12.6 km/h 20.4 km/h 97 % 1.52 mm
15:11 0.9 °C 0.4 °C 990.7 hPa NE 14.5 km/h 29 km/h 97 % 0 mm
15:16 0.9 °C 0.4 °C 990.7 hPa NNE 15 km/h 33.3 km/h 97 % 1.52 mm
15:21 0.9 °C 0.4 °C 990.7 hPa NNE 13.7 km/h 25.9 km/h 97 % 1.52 mm
15:26 0.9 °C 0.4 °C 990.4 hPa ENE 13.2 km/h 22.2 km/h 97 % 1.52 mm
15:31 0.9 °C 0.4 °C 990.4 hPa NNE 17.2 km/h 29.6 km/h 97 % 1.78 mm
15:36 0.9 °C 0.4 °C 990.4 hPa NE 15.3 km/h 24.1 km/h 97 % 1.52 mm
15:41 0.9 °C 0.4 °C 990.4 hPa NE 14.6 km/h 19.3 km/h 97 % 1.78 mm
15:47 0.9 °C 0.4 °C 990.1 hPa NNE 16.9 km/h 25.9 km/h 97 % 1.52 mm
15:52 0.8 °C 0.4 °C 990.1 hPa NE 15.3 km/h 25.9 km/h 97 % 1.78 mm
15:57 0.8 °C 0.4 °C 990.1 hPa NNE 16.1 km/h 24.1 km/h 97 % 1.52 mm
16:02 0.8 °C 0.4 °C 990.1 hPa NNE 12.1 km/h 18.5 km/h 97 % 1.78 mm
16:07 0.8 °C 0.3 °C 990.1 hPa NNE 17.4 km/h 27.8 km/h 97 % 1.52 mm
16:12 0.8 °C 0.3 °C 990.4 hPa NNE 13.8 km/h 25.9 km/h 97 % 1.52 mm
16:17 0.8 °C 0.3 °C 990.4 hPa NE 17.1 km/h 27.8 km/h 97 % 1.52 mm
16:22 0.8 °C 0.3 °C 990.4 hPa NNE 18.8 km/h 29.6 km/h 97 % 1.27 mm
16:27 0.8 °C 0.3 °C 990.7 hPa NNE 18.3 km/h 24.1 km/h 97 % 1.52 mm
16:32 0.8 °C 0.3 °C 990.7 hPa NNE 18.2 km/h 24.1 km/h 97 % 1.27 mm
16:37 0.7 °C 0.3 °C 990.7 hPa NNE 19.8 km/h 25.7 km/h 97 % 1.27 mm
16:43 0.7 °C 0.2 °C 991.1 hPa NNE 12.7 km/h 25.9 km/h 97 % 1.27 mm
16:48 0.6 °C 0.2 °C 991.4 hPa North 21.7 km/h 31.5 km/h 97 % 1.52 mm
16:53 0.6 °C 0.2 °C 991.4 hPa NNE 15.1 km/h 20.4 km/h 97 % 1.27 mm
16:58 0.6 °C 0.1 °C 991.8 hPa North 14.3 km/h 20.4 km/h 97 % 1.27 mm
17:03 0.6 °C 0.1 °C 991.8 hPa NNE 15.3 km/h 27.8 km/h 97 % 1.27 mm
17:08 0.6 °C 0.1 °C 991.4 hPa NNW 11.9 km/h 16.1 km/h 97 % 1.52 mm
17:13 0.5 °C 0.1 °C 991.1 hPa NNE 15.8 km/h 24.1 km/h 97 % 1.52 mm
17:18 0.5 °C 0.1 °C 990.7 hPa North 15.9 km/h 29.6 km/h 97 % 1.52 mm
17:23 0.5 °C 0.1 °C 991.1 hPa NNE 15.4 km/h 20.9 km/h 97 % 1.78 mm
17:28 0.5 °C 0.1 °C 991.1 hPa North 12.1 km/h 18.5 km/h 97 % 1.78 mm
17:33 0.5 °C 0.1 °C 990.7 hPa NNE 11.6 km/h 18.5 km/h 97 % 2.03 mm
17:38 0.5 °C 0.1 °C 990.7 hPa NNE 8.7 km/h 14.8 km/h 97 % 2.03 mm
17:43 0.5 °C 0.1 °C 990.7 hPa North 12.7 km/h 22.2 km/h 97 % 2.29 mm
17:48 0.6 °C 0.1 °C 990.7 hPa NNE 16.3 km/h 24.1 km/h 97 % 2.03 mm
17:53 0.6 °C 0.1 °C 990.7 hPa North 15.9 km/h 31.5 km/h 97 % 2.29 mm
17:58 0.6 °C 0.1 °C 990.4 hPa North 14.5 km/h 18.5 km/h 97 % 2.29 mm
18:03 0.6 °C 0.2 °C 990.7 hPa NNE 15.8 km/h 24.1 km/h 97 % 2.29 mm
18:09 0.6 °C 0.2 °C 990.7 hPa NNW 11.1 km/h 18.5 km/h 97 % 2.29 mm
18:14 0.6 °C 0.2 °C 991.1 hPa NNE 15.6 km/h 22.2 km/h 97 % 2.29 mm
18:19 0.6 °C 0.2 °C 991.1 hPa North 12.2 km/h 19.3 km/h 97 % 2.03 mm
18:24 0.6 °C 0.1 °C 991.1 hPa NNE 11.9 km/h 18.5 km/h 97 % 2.29 mm
18:29 0.6 °C 0.1 °C 991.1 hPa NNW 13.5 km/h 24.1 km/h 97 % 2.29 mm
18:34 0.6 °C 0.1 °C 990.7 hPa NNE 15 km/h 20.4 km/h 97 % 2.03 mm
18:39 0.6 °C 0.1 °C 991.1 hPa NNE 14.3 km/h 22.2 km/h 97 % 2.03 mm
18:44 0.6 °C 0.1 °C 991.1 hPa NNW 12.6 km/h 18.5 km/h 97 % 2.03 mm
18:49 0.6 °C 0.1 °C 991.4 hPa NW 15.3 km/h 20.4 km/h 97 % 2.03 mm
18:54 0.6 °C 0.1 °C 991.4 hPa North 10.1 km/h 18.5 km/h 97 % 2.03 mm
18:59 0.6 °C 0.1 °C 991.4 hPa NNE 11.9 km/h 18.5 km/h 97 % 2.03 mm
19:04 0.6 °C 0.2 °C 991.8 hPa North 12.4 km/h 18.5 km/h 97 % 2.03 mm
19:09 0.7 °C 0.4 °C 991.8 hPa NNE 13 km/h 20.4 km/h 98 % 2.03 mm
19:14 0.7 °C 0.4 °C 992.1 hPa North 11.7 km/h 20.4 km/h 98 % 2.03 mm
19:19 0.7 °C 0.4 °C 992.1 hPa North 12.6 km/h 16.7 km/h 98 % 2.29 mm
19:24 0.8 °C 0.5 °C 992.1 hPa NNE 12.9 km/h 18.5 km/h 98 % 2.29 mm
19:29 0.8 °C 0.4 °C 992.1 hPa NNE 11.4 km/h 14.5 km/h 97 % 2.29 mm
19:34 0.8 °C 0.4 °C 992.4 hPa NNE 5.6 km/h 13 km/h 97 % 2.29 mm
19:39 0.8 °C 0.6 °C 992.4 hPa North 8.9 km/h 24.1 km/h 98 % 2.29 mm
19:44 0.9 °C 0.6 °C 992.8 hPa NNE 13.2 km/h 18.5 km/h 98 % 2.29 mm
19:49 0.9 °C 0.6 °C 992.8 hPa North 11.9 km/h 18.5 km/h 98 % 2.54 mm
19:55 0.9 °C 0.7 °C 992.8 hPa NNW 12.4 km/h 22.2 km/h 98 % 2.54 mm
20:00 1 °C 0.7 °C 992.8 hPa North 11.9 km/h 25.9 km/h 98 % 2.54 mm
20:05 1.1 °C 0.6 °C 992.8 hPa North 9.3 km/h 20.4 km/h 97 % 2.54 mm
20:10 1.1 °C 0.7 °C 992.8 hPa NW 8.7 km/h 18.5 km/h 97 % 2.54 mm
20:15 1.1 °C 0.7 °C 992.8 hPa NNW 9 km/h 20.9 km/h 97 % 2.79 mm
20:20 1.2 °C 0.7 °C 992.8 hPa NNW 17.9 km/h 31.5 km/h 97 % 2.79 mm
20:25 1.2 °C 0.9 °C 992.8 hPa NNW 9.7 km/h 18.5 km/h 98 % 2.54 mm
20:30 1.3 °C 1.1 °C 992.8 hPa NNW 14.8 km/h 22.2 km/h 98 % 2.54 mm
20:35 1.4 °C 1.1 °C 992.8 hPa NNW 14 km/h 29.6 km/h 98 % 2.79 mm
20:40 1.4 °C 1 °C 992.8 hPa NNW 10.5 km/h 25.7 km/h 97 % 2.79 mm
20:45 1.6 °C 1.3 °C 992.8 hPa NE 10.9 km/h 18.5 km/h 98 % 2.79 mm
20:50 1.7 °C 1.4 °C 992.8 hPa North 19.8 km/h 38.6 km/h 98 % 2.79 mm
20:55 1.7 °C 1.3 °C 992.8 hPa NNW 13.7 km/h 29.6 km/h 97 % 2.79 mm
21:00 1.8 °C 1.6 °C 992.8 hPa NNE 24.5 km/h 38.6 km/h 98 % 2.54 mm
21:05 2 °C 1.7 °C 992.8 hPa NE 21.9 km/h 35.2 km/h 98 % 2.54 mm
21:10 2.1 °C 1.6 °C 992.8 hPa North 18 km/h 31.5 km/h 97 % 2.29 mm
21:16 2.1 °C 1.8 °C 992.8 hPa NE 18.8 km/h 27.8 km/h 98 % 2.29 mm
21:21 2.2 °C 1.7 °C 992.8 hPa North 26.4 km/h 37 km/h 97 % 2.03 mm
21:26 2.2 °C 1.8 °C 992.4 hPa North 22.5 km/h 38.6 km/h 97 % 0 mm
21:31 2.2 °C 1.8 °C 992.1 hPa North 22.5 km/h 41.8 km/h 97 % 0 mm
21:36 2.2 °C 1.8 °C 992.4 hPa NNE 22.5 km/h 41.8 km/h 97 % 0 mm
21:41 2.2 °C 1.8 °C 992.4 hPa NNW 21.2 km/h 42.6 km/h 97 % 1.78 mm
21:46 2.2 °C 1.8 °C 992.4 hPa North 12.9 km/h 33.8 km/h 97 % 0 mm
21:51 2.3 °C 1.8 °C 992.4 hPa North 22.5 km/h 40.2 km/h 97 % 0 mm
21:56 2.3 °C 1.8 °C 992.4 hPa NNE 19.3 km/h 40.2 km/h 97 % 0.25 mm
22:01 2.3 °C 1.8 °C 992.4 hPa North 12.9 km/h 20.4 km/h 97 % 1.27 mm
22:06 2.3 °C 1.8 °C 992.4 hPa North 15.3 km/h 20.4 km/h 97 % 1.02 mm
22:11 2.2 °C 1.7 °C 992.4 hPa NNW 10.6 km/h 22.2 km/h 96 % 1.02 mm
22:16 2.2 °C 1.7 °C 992.8 hPa North 9.3 km/h 24.1 km/h 96 % 0.76 mm
22:21 2.3 °C 1.7 °C 992.8 hPa NNW 16.4 km/h 25.7 km/h 96 % 0.51 mm
22:26 2.2 °C 1.7 °C 992.8 hPa NNW 10.3 km/h 18.5 km/h 96 % 0.51 mm
22:31 2.2 °C 1.6 °C 993.1 hPa NNW 12.2 km/h 16.7 km/h 96 % 0.76 mm
22:36 2.1 °C 1.6 °C 993.1 hPa NNW 7.6 km/h 22.2 km/h 96 % 0.51 mm
22:41 2.1 °C 1.5 °C 993.5 hPa NNW 7.6 km/h 18.5 km/h 96 % 0.76 mm
22:46 2.1 °C 1.5 °C 993.5 hPa WNW 6.9 km/h 14.8 km/h 96 % 0.76 mm
22:51 2.1 °C 1.5 °C 993.5 hPa West 4.7 km/h 9.7 km/h 96 % 1.02 mm
22:56 2 °C 1.4 °C 993.5 hPa NW 6.3 km/h 17.7 km/h 96 % 0.76 mm
23:01 1.9 °C 1.3 °C 993.5 hPa NW 10.1 km/h 20.9 km/h 96 % 0.76 mm
23:06 1.7 °C 1.2 °C 993.5 hPa West 7.9 km/h 20.4 km/h 96 % 0.76 mm
23:11 1.6 °C 1 °C 993.8 hPa West 10.8 km/h 18.5 km/h 96 % 1.02 mm
23:16 1.4 °C 0.9 °C 993.5 hPa WNW 8.2 km/h 20.9 km/h 96 % 1.02 mm
23:21 1.3 °C 0.8 °C 993.8 hPa West 9.3 km/h 22.2 km/h 96 % 1.02 mm
23:26 1.3 °C 0.7 °C 993.8 hPa NW 11.4 km/h 16.7 km/h 96 % 1.27 mm
23:31 1.2 °C 0.7 °C 993.8 hPa WNW 10.6 km/h 18.5 km/h 96 % 1.02 mm
23:37 1.2 °C 0.6 °C 993.8 hPa NW 8.9 km/h 22.2 km/h 96 % 1.02 mm
23:42 1.1 °C 0.6 °C 994.1 hPa WNW 11.9 km/h 18.5 km/h 96 % 0.76 mm
23:47 1.1 °C 0.6 °C 994.1 hPa West 11.7 km/h 18.5 km/h 96 % 0.51 mm
23:52 1.1 °C 0.5 °C 994.5 hPa NW 6.1 km/h 18.5 km/h 96 % 0.76 mm
23:57 1.1 °C 0.5 °C 994.5 hPa NW 8.2 km/h 18.5 km/h 96 % 0.76 mm
Crab Meadow Weather
Compliments of Weather Underground - 3 mb

Script developed by  Jim McMurry - jmcmurry@mwt.net Adapted for the template by  Wim van der Kuil - Leuven-Template.eu

Weather Terms: Downburst - A strong downdraft from a thunderstorm resulting in an outward burst of damaging winds on or near the ground. Downburst winds are often 50 to 100 mph and in a few cases, 100 to 150 mph. They can do as much damage as a small tornado.